When you browse on this site, cookies collect data to enhance your experience and personalize the content and advertising you see.
Visit our Privacy Policy to learn more. By continuing to use the site, you agree to this use of cookies and data.
  • In Austria
  • List of Countries
  • For 7 days
  • Water Temperature
  • Weather Map
  • News
  • Weather Widgets
  • user-avatar
    Login

    Hourly Weather La Vega

    Today, 17 January, Friday

    Time Temperature Precipitation Wind Pressure Humidity
    00:00 +21°C° 0 mm 2 mps 660 mmHg 76%
    01:00 +20°C° 0 mm 2 mps 659 mmHg 82%
    02:00 +20°C° 0.1 mm 2 mps 659 mmHg 81%
    03:00 +20°C° 0.1 mm 2 mps 659 mmHg 80%
    04:00 +20°C° 0.1 mm 2 mps 659 mmHg 79%
    05:00 +20°C° 0 mm 2 mps 659 mmHg 78%
    06:00 +21°C° 0 mm 2 mps 660 mmHg 77%
    07:00 +21°C° 0 mm 2 mps 660 mmHg 77%
    08:00 +25°C° 0 mm 2 mps 661 mmHg 68%
    09:00 +27°C° 0 mm 2 mps 662 mmHg 60%
    10:00 +30°C° 0 mm 2 mps 663 mmHg 52%
    11:00 +30°C° 0 mm 2 mps 662 mmHg 50%
    12:00 +31°C° 0 mm 2 mps 662 mmHg 47%
    13:00 +33°C° 0 mm 3 mps 661 mmHg 45%
    14:00 +31°C° 0 mm 2 mps 660 mmHg 47%
    15:00 +31°C° 0 mm 2 mps 660 mmHg 49%
    16:00 +30°C° 0 mm 2 mps 659 mmHg 50%
    17:00 +28°C° 0 mm 2 mps 659 mmHg 59%
    18:00 +26°C° 0 mm 2 mps 659 mmHg 67%
    19:00 +24°C° 0 mm 2 mps 659 mmHg 75%
    20:00 +24°C° 0 mm 2 mps 660 mmHg 75%
    21:00 +23°C° 0 mm 2 mps 660 mmHg 74%
    22:00 +23°C° 0 mm 2 mps 661 mmHg 74%
    23:00 +23°C° 0 mm 2 mps 661 mmHg 72%

    Tomorrow, 18 January, Saturday

    Time Temperature Precipitation Wind Pressure Humidity
    00:00 +23°C° 0 mm 2 mps 660 mmHg 71%
    01:00 +23°C° 0 mm 1 mps 660 mmHg 70%
    02:00 +23°C° 0 mm 1 mps 660 mmHg 71%
    03:00 +23°C° 0 mm 1 mps 660 mmHg 72%
    04:00 +23°C° 0 mm 1 mps 659 mmHg 72%
    05:00 +23°C° 0 mm 1 mps 660 mmHg 73%
    06:00 +23°C° 0 mm 1 mps 660 mmHg 74%
    07:00 +23°C° 0 mm 1 mps 660 mmHg 75%
    08:00 +25°C° 0 mm 2 mps 661 mmHg 67%
    09:00 +28°C° 0 mm 2 mps 662 mmHg 58%
    10:00 +30°C° 0 mm 2 mps 663 mmHg 50%
    11:00 +30°C° 0 mm 2 mps 662 mmHg 49%
    12:00 +31°C° 0 mm 2 mps 661 mmHg 48%
    13:00 +31°C° 0 mm 2 mps 660 mmHg 48%
    14:00 +31°C° 0 mm 2 mps 660 mmHg 50%
    15:00 +30°C° 0 mm 2 mps 659 mmHg 53%
    16:00 +30°C° 0 mm 1 mps 658 mmHg 56%
    17:00 +28°C° 0.1 mm 1 mps 658 mmHg 63%
    18:00 +26°C° 0.1 mm 1 mps 658 mmHg 69%
    19:00 +25°C° 0.1 mm 1 mps 658 mmHg 76%
    20:00 +24°C° 0 mm 1 mps 659 mmHg 76%
    21:00 +24°C° 0 mm 1 mps 660 mmHg 76%
    22:00 +23°C° 0 mm 2 mps 660 mmHg 76%
    23:00 +23°C° 0 mm 2 mps 660 mmHg 76%

    Day after tomorrow, 19 January, Sunday

    Time Temperature Precipitation Wind Pressure Humidity
    00:00 +23°C° 0 mm 2 mps 660 mmHg 76%
    01:00 +23°C° 0 mm 2 mps 659 mmHg 76%
    02:00 +21°C° 0 mm 2 mps 659 mmHg 75%
    03:00 +22°C° 0 mm 1 mps 659 mmHg 75%
    04:00 +22°C° 0 mm 1 mps 659 mmHg 74%
    05:00 +23°C° 0 mm 1 mps 659 mmHg 74%
    06:00 +23°C° 0 mm 1 mps 660 mmHg 75%
    07:00 +23°C° 0 mm 1 mps 660 mmHg 75%
    08:00 +25°C° 0 mm 1 mps 661 mmHg 68%
    09:00 +27°C° 0 mm 1 mps 661 mmHg 60%
    10:00 +30°C° 0 mm 1 mps 662 mmHg 52%
    11:00 +30°C° 0.1 mm 1 mps 661 mmHg 52%
    12:00 +31°C° 0.1 mm 1 mps 661 mmHg 51%
    13:00 +31°C° 0.1 mm 2 mps 660 mmHg 51%
    14:00 +31°C° 0.1 mm 2 mps 659 mmHg 52%
    15:00 +31°C° 0.1 mm 2 mps 658 mmHg 53%
    16:00 +30°C° 0.1 mm 2 mps 658 mmHg 54%
    17:00 +28°C° 0.2 mm 1 mps 658 mmHg 63%
    18:00 +26°C° 0.2 mm 1 mps 658 mmHg 72%
    19:00 +23°C° 0.2 mm 0 mps 658 mmHg 81%
    20:00 +24°C° 0.2 mm 1 mps 659 mmHg 82%
    21:00 +24°C° 0.2 mm 1 mps 659 mmHg 82%
    22:00 +23°C° 0.2 mm 1 mps 660 mmHg 83%
    23:00 +23°C° 0.4 mm 1 mps 660 mmHg 84%

    20 January, Monday

    Time Temperature Precipitation Wind Pressure Humidity
    00:00 +21°C° 0.4 mm 2 mps 659 mmHg 85%
    01:00 +20°C° 0.4 mm 2 mps 659 mmHg 86%
    02:00 +20°C° 0.4 mm 2 mps 659 mmHg 87%
    03:00 +20°C° 0.4 mm 2 mps 658 mmHg 87%
    04:00 +19°C° 0.4 mm 2 mps 658 mmHg 87%
    05:00 +21°C° 0.4 mm 1 mps 659 mmHg 86%
    06:00 +21°C° 0.4 mm 1 mps 659 mmHg 85%
    07:00 +21°C° 0.4 mm 1 mps 660 mmHg 83%
    08:00 +24°C° 0.4 mm 1 mps 660 mmHg 78%
    09:00 +26°C° 0.4 mm 1 mps 661 mmHg 72%
    10:00 +28°C° 0.4 mm 1 mps 662 mmHg 66%
    11:00 +28°C° 0.8 mm 1 mps 661 mmHg 69%
    12:00 +28°C° 0.8 mm 1 mps 660 mmHg 72%
    13:00 +28°C° 0.8 mm 2 mps 660 mmHg 76%
    14:00 +27°C° 1.5 mm 1 mps 659 mmHg 78%
    15:00 +27°C° 1.5 mm 1 mps 659 mmHg 81%
    16:00 +26°C° 1.5 mm 1 mps 658 mmHg 84%
    17:00 +25°C° 1.7 mm 1 mps 658 mmHg 87%
    18:00 +22°C° 1.7 mm 0 mps 658 mmHg 90%
    19:00 +21°C° 1.7 mm 0 mps 659 mmHg 93%
    20:00 +21°C° 1 mm 0 mps 659 mmHg 92%
    21:00 +23°C° 1 mm 1 mps 660 mmHg 92%
    22:00 +23°C° 1 mm 1 mps 660 mmHg 91%
    23:00 +23°C° 1.2 mm 1 mps 660 mmHg 91%

    21 January, Tuesday

    Time Temperature Precipitation Wind Pressure Humidity
    00:00 +23°C° 1.2 mm 1 mps 659 mmHg 91%
    01:00 +22°C° 1.2 mm 1 mps 659 mmHg 91%
    02:00 +22°C° 0.7 mm 1 mps 659 mmHg 91%
    03:00 +20°C° 0.7 mm 0 mps 659 mmHg 92%
    04:00 +20°C° 0.7 mm 0 mps 659 mmHg 92%
    05:00 +20°C° 0.7 mm 0 mps 659 mmHg 93%
    06:00 +20°C° 0.7 mm 0 mps 659 mmHg 93%
    07:00 +20°C° 0.7 mm 0 mps 660 mmHg 94%
    08:00 +20°C° 0.9 mm 0 mps 660 mmHg 94%
    09:00 +20°C° 0.9 mm 0 mps 661 mmHg 94%
    10:00 +21°C° 0.9 mm 0 mps 661 mmHg 95%
    11:00 +23°C° 1.3 mm 1 mps 660 mmHg 95%
    12:00 +23°C° 1.3 mm 1 mps 660 mmHg 95%
    13:00 +23°C° 1.3 mm 1 mps 660 mmHg 95%
    14:00 +23°C° 0.6 mm 1 mps 659 mmHg 95%
    15:00 +21°C° 0.6 mm 0 mps 659 mmHg 94%
    16:00 +21°C° 0.6 mm 0 mps 658 mmHg 93%
    17:00 +21°C° 0.2 mm 0 mps 659 mmHg 94%
    18:00 +20°C° 0.2 mm 0 mps 659 mmHg 94%
    19:00 +20°C° 0.2 mm 0 mps 659 mmHg 94%
    20:00 +20°C° 0.1 mm 0 mps 660 mmHg 93%
    21:00 +20°C° 0.1 mm 0 mps 660 mmHg 92%
    22:00 +19°C° 0.1 mm 0 mps 661 mmHg 92%
    23:00 +19°C° 0 mm 0 mps 661 mmHg 92%

    22 January, Wednesday

    Time Temperature Precipitation Wind Pressure Humidity
    00:00 +19°C° 0 mm 0 mps 660 mmHg 92%
    01:00 +19°C° 0 mm 0 mps 660 mmHg 92%
    02:00 +19°C° 0.1 mm 0 mps 660 mmHg 92%
    03:00 +18°C° 0.1 mm 0 mps 659 mmHg 92%
    04:00 +18°C° 0.1 mm 0 mps 659 mmHg 92%
    05:00 +18°C° 0 mm 0 mps 659 mmHg 92%
    06:00 +19°C° 0 mm 0 mps 660 mmHg 91%
    07:00 +19°C° 0 mm 0 mps 660 mmHg 90%
    08:00 +20°C° 0.1 mm 0 mps 661 mmHg 87%
    09:00 +21°C° 0.1 mm 0 mps 661 mmHg 84%
    10:00 +22°C° 0.1 mm 0 mps 662 mmHg 80%
    11:00 +25°C° 0.3 mm 1 mps 661 mmHg 80%
    12:00 +25°C° 0.3 mm 1 mps 661 mmHg 80%
    13:00 +26°C° 0.3 mm 1 mps 660 mmHg 79%
    14:00 +26°C° 0.6 mm 1 mps 659 mmHg 81%
    15:00 +25°C° 0.6 mm 1 mps 659 mmHg 84%
    16:00 +25°C° 0.6 mm 1 mps 658 mmHg 86%
    17:00 +24°C° 0.7 mm 1 mps 658 mmHg 89%
    18:00 +23°C° 0.7 mm 1 mps 659 mmHg 92%
    19:00 +22°C° 0.7 mm 1 mps 659 mmHg 95%
    20:00 +22°C° 0.3 mm 1 mps 659 mmHg 95%
    21:00 +19°C° 0.3 mm 0 mps 660 mmHg 95%
    22:00 +19°C° 0.3 mm 0 mps 660 mmHg 95%
    23:00 +21°C° 0.1 mm 1 mps 660 mmHg 96%
    Show more